EW5732 Kastrup DK current weather conditions

sailwx.info

Wind from 333

Air temperature 24.4° C
Dewpoint 17.7° C

Last reported at 2020-Aug-09 08:01 UTC.
Time now 2020-Aug-09 08:36 UTC

Location: N 55°38' E 012°39'.
View on Google Maps.

See reports from other nearby stations

  
Tides and Currents Weather Stations Pressure Air Temp Water Temp Dewpoint Dewpoint Depression Visibility Wind Speed Wind Dir Waves Ship Positions
date/time (UTC)wind fromknots sea level pressurealtimeterstation pressurevisibilityair tempwater tempwave heightnotes
2020-Aug-09 08:01 333 24.4
2020-Aug-09 07:45 034 23.9
2020-Aug-09 07:32 345 23.9
2020-Aug-09 07:17 055 23.9
2020-Aug-09 07:01 322 23.9
2020-Aug-09 06:46 325 23.3
2020-Aug-09 06:31 323 22.8
2020-Aug-09 06:16 323 22.2
2020-Aug-09 06:01 301 22.2
2020-Aug-09 05:45 301 21.7
2020-Aug-09 05:30 301 21.1
2020-Aug-09 05:15 301 20.6
2020-Aug-09 05:01 301 19.4
2020-Aug-09 04:47 301 19.4
2020-Aug-09 04:30 301 19.4
2020-Aug-09 04:15 301 19.4
2020-Aug-09 04:01 301 19.4
2020-Aug-09 03:45 301 19.4
2020-Aug-09 03:30 301 19.4
2020-Aug-09 03:15 301 19.4
2020-Aug-09 03:00 301 20.0
2020-Aug-09 02:45 301 20.0
2020-Aug-09 02:30 301 20.0
2020-Aug-09 02:15 301 20.0
2020-Aug-09 02:00 301 20.0
2020-Aug-09 01:45 301 20.6
2020-Aug-09 01:15 301 20.6
2020-Aug-09 01:00 301 20.6
2020-Aug-09 00:45 301 20.6
2020-Aug-09 00:30 301 20.6
2020-Aug-09 00:15 301 20.6
2020-Aug-09 00:00 301 21.1
2020-Aug-08 23:45 301 21.1
2020-Aug-08 23:30 301 21.1
2020-Aug-08 23:15 301 21.7
2020-Aug-08 23:00 301 21.7
2020-Aug-08 22:45 301 21.7
2020-Aug-08 22:31 301 22.2
2020-Aug-08 22:17 301 22.2
2020-Aug-08 22:01 301 22.2
2020-Aug-08 21:47 301 22.2
2020-Aug-08 21:31 301 22.8
2020-Aug-08 21:16 301 22.8
2020-Aug-08 21:01 301 22.8
2020-Aug-08 20:46 301 23.3
2020-Aug-08 20:31 301 23.3
2020-Aug-08 20:16 301 23.3
2020-Aug-08 20:01 301 23.3
2020-Aug-08 19:46 301 23.3
2020-Aug-08 19:31 301 23.9
2020-Aug-08 19:16 301 23.9
2020-Aug-08 19:02 301 23.9
2020-Aug-08 18:46 301 24.4
2020-Aug-08 18:31 301 24.4
2020-Aug-08 18:16 300 25.0
2020-Aug-08 18:03 299 25.6
2020-Aug-08 17:46 299 25.6
2020-Aug-08 17:31 299 26.1
2020-Aug-08 17:16 298 26.7
2020-Aug-08 17:02 289 26.7
2020-Aug-08 16:45 338 27.2
2020-Aug-08 16:31 338 28.3
2020-Aug-08 16:16 355 28.3
2020-Aug-08 16:01 272 28.3
2020-Aug-08 15:46 296 27.8
2020-Aug-08 15:31 313 28.3
2020-Aug-08 15:15 337 0 28.3
2020-Aug-08 15:01 295 30.0
2020-Aug-08 14:46 360 0 29.4
2020-Aug-08 14:31 311 30.6
2020-Aug-08 14:16 311 31.1
2020-Aug-08 14:01 310 31.1
2020-Aug-08 13:46 310 30.6
2020-Aug-08 13:31 309 0 30.6
2020-Aug-08 13:16 309 30.0
2020-Aug-08 13:01 309 28.9
2020-Aug-08 12:46 325 28.3
2020-Aug-08 12:32 319 0 28.9
2020-Aug-08 12:16 323 29.4
2020-Aug-08 12:01 321 0 28.3
2020-Aug-08 11:46 333 0 28.3
2020-Aug-08 11:30 337 28.3
2020-Aug-08 11:16 339 0 27.8
2020-Aug-08 11:00 016 0 26.7
2020-Aug-08 10:45 321 0 27.2
2020-Aug-08 10:30 338 0 26.1
2020-Aug-08 10:15 334 26.7
2020-Aug-08 10:00 017 0 25.0
2020-Aug-08 09:46 013 24.4
2020-Aug-08 09:30 360 23.9
2020-Aug-08 09:15 355 0 22.8
2020-Aug-08 09:01 314 22.8
2020-Aug-08 08:45 312 0 22.8
2020-Aug-08 08:31 085 0 22.2
2020-Aug-08 08:15 360 22.2
2020-Aug-08 08:00 360 21.7
2020-Aug-08 07:45 005 21.7
2020-Aug-08 07:30 005 21.7
2020-Aug-08 07:15 360 21.1
2020-Aug-08 07:00 360 19.4
2020-Aug-08 06:45 005 0 19.4
2020-Aug-08 06:16 027 20.0
2020-Aug-08 06:02 009 0 19.4
2020-Aug-08 05:46 325 18.9
2020-Aug-08 05:32 344 18.9
2020-Aug-08 05:16 344 18.3
2020-Aug-08 05:02 349 18.3
2020-Aug-08 04:46 349 18.3
2020-Aug-08 04:31 350 18.3
2020-Aug-08 04:16 350 18.3
2020-Aug-08 04:02 348 18.3
2020-Aug-08 03:46 355 0 18.3
2020-Aug-08 03:31 355 18.3
2020-Aug-08 03:17 360 18.3
2020-Aug-08 03:02 013 0 18.3
2020-Aug-08 02:45 360 0 18.3
2020-Aug-08 02:31 317 0 18.3
2020-Aug-08 02:15 323 1 18.3
2020-Aug-08 02:01 024 1 18.3
2020-Aug-08 01:45 337 0 18.3
2020-Aug-08 01:31 348 18.3
2020-Aug-08 01:16 319 0 18.3
2020-Aug-08 01:01 346 18.3
2020-Aug-08 00:45 348 18.9
2020-Aug-08 00:30 348 0 18.9
2020-Aug-08 00:15 344 18.9
2020-Aug-08 00:01 340 19.4
2020-Aug-07 23:46 360 0 19.4
2020-Aug-07 23:30 360 19.4
2020-Aug-07 23:16 355 20.0
2020-Aug-07 23:01 360 20.6
2020-Aug-07 22:46 028 20.6
2020-Aug-07 22:31 042 21.1
2020-Aug-07 22:15 042 21.1
2020-Aug-07 22:01 042 21.1
2020-Aug-07 21:45 042 21.7
2020-Aug-07 21:31 042 21.7
2020-Aug-07 21:00 065 22.8
2020-Aug-07 20:46 065 22.8
2020-Aug-07 20:30 065 22.8
2020-Aug-07 20:01 080 23.3
2020-Aug-07 19:45 080 23.9
2020-Aug-07 19:31 080 0 23.9
2020-Aug-07 19:01 083 0 25.0
2020-Aug-07 18:45 068 0 25.0
2020-Aug-07 18:31 055 1 25.6
2020-Aug-07 18:01 088 1 26.7
2020-Aug-07 17:45 069 0 27.2
2020-Aug-07 17:30 238 27.8
2020-Aug-07 17:00 215 27.8
2020-Aug-07 16:46 226 0 27.8
2020-Aug-07 16:30 243 0 27.8
2020-Aug-07 16:01 305 0 28.3
2020-Aug-07 15:45 026 0 28.9
2020-Aug-07 15:31 167 0 28.3
2020-Aug-07 15:00 053 1 28.9
2020-Aug-07 14:45 015 1 29.4
2020-Aug-07 14:30 044 0 29.4
2020-Aug-07 14:01 034 1 29.4
2020-Aug-07 13:46 081 1 29.4
2020-Aug-07 13:30 227 1 29.4
2020-Aug-07 13:15 257 2 28.9
2020-Aug-07 13:00 030 1 29.4
2020-Aug-07 12:46 284 2 28.9
2020-Aug-07 12:31 028 1 28.9
2020-Aug-07 12:16 072 1 28.9
2020-Aug-07 12:00 080 2 27.8
2020-Aug-07 11:46 052 2 27.2
2020-Aug-07 11:31 059 2 27.2
2020-Aug-07 11:17 045 1 27.2
2020-Aug-07 11:01 227 1 27.2
2020-Aug-07 10:46 323 1 27.2
2020-Aug-07 10:31 249 1 27.2
2020-Aug-07 10:16 257 1 26.7
2020-Aug-07 10:01 011 0 26.7
2020-Aug-07 09:46 065 1 26.1
2020-Aug-07 09:32 074 0 26.1
2020-Aug-07 09:17 069 1 25.0
2020-Aug-07 09:01 068 1 25.0
2020-Aug-07 08:46 078 1 24.4
2020-Aug-07 08:31 103 1 23.9
2020-Aug-07 08:16 105 0 24.4
2020-Aug-07 08:01 102 0 23.9